Preview of NWS' New Version of Forecast
This preview is not operational and should not be used for support decisions.
Latest weather observations around

Jonesboro, Jonesboro Municipal Airport (KJBR)

Using English Units (Switch to International System of Units)
Date/ Time (CST) Wind (mph) Vis. (mi) Weather Sky Cond. Temp (°F) Rel. Humidity Wind Chill (°F) Heat Index (°F) Pressure Precip. (in)
Air Dwpt 6 hour Altimeter (inHg) Sea level (inHg) 1 hr 3 hr 6 hr
Max Min
Feb 25 04:53 NW 7 10 Clear CLR 44 35     70% 40   30.06 30.06      
Feb 25 03:53 Calm 10 Clear CLR 45 36     71%     30.03 30.02      
Feb 25 02:53 WNW 10 10 Clear CLR 46 39     76% 41   30.03 30.02      
Feb 25 01:53 WNW 16 10 Clear CLR 48 38     68% 42   30.02 30.01      
Feb 25 00:53 WNW 16 10 Clear CLR 52 43     71%     29.98 29.98      
Feb 24 23:53 WNW 15 10 Clear CLR 54 47     77%     29.92 29.91     0
Feb 24 22:53 W 13 10 Mostly Clear FEW120 60 57     90%     29.88 29.87      
Feb 24 21:53 WSW 13 10 Mostly Clear FEW110 61 59     93%     29.84 29.83      
Feb 24 20:53 SW 15 10 Mostly Cloudy BKN110 61 59     93%     29.81 29.81 0 0  
Feb 24 20:21 WSW 18 10 Mostly Cloudy FEW023 SCT095 BKN120 61 58     90%     29.8   0    
Feb 24 19:53 SW 20 10 Cloudy and Windy BKN025 OVC095 62 58     86%     29.78 29.78 0    
Feb 24 18:53 SW 23 10 Light Rain OVC110 63 63     100%     29.75 29.74 0    
Feb 24 18:06 SW 23 8 Rain FEW023 BKN100 OVC110 68 66     93%     29.72   0    
Feb 24 17:53 SW 20 8 Rain FEW015 BKN075 OVC100 67 65     93%     29.71 29.7 1   1
Feb 24 17:46 SW 23 2 Thunderstorms and Rain and Fog/Mist SCT019 BKN032 OVC100 65 63     93%     29.72   1    
Feb 24 17:39   0.75 Thunderstorms and Heavy Rain and Fog/Mist SCT016 BKN026 OVC035 64 62     93%     29.72   1    
Feb 24 17:37   1 Thunderstorms and Heavy Rain and Fog/Mist SCT013 SCT023 OVC032 63 62     97%     29.72   0    
Feb 24 17:32   2.5 Heavy Rain and Fog/Mist SCT024 BKN029 OVC036 68 66     93%     29.74   0    
Feb 24 17:25 S 21 5 Rain and Fog/Mist SCT030 OVC036 69 67     93%     29.68   0    
Feb 24 16:53 S 20 10 Light Rain FEW026 BKN032 OVC080 69 67     93%     29.68 29.67 0    
Feb 24 16:05 S 21 10 Cloudy and Windy BKN027 BKN031 OVC065 70 67     90%     29.7        
Feb 24 15:53 S 20 10 Cloudy and Windy SCT027 BKN034 OVC065 70 67     90%     29.71 29.7 0    
Feb 24 15:50 S 16 10 Cloudy SCT027 BKN034 OVC050 70 66     88%     29.71   0    
Feb 24 14:53 S 18 10 Cloudy BKN026 BKN036 OVC075 68 68     100%     29.73 29.73 0 0  
Feb 24 14:43 S 17 10 Cloudy BKN026 BKN038 OVC070 68 68     100%     29.74   0    
Feb 24 14:23 S 14 9 Mostly Cloudy FEW005 SCT024 BKN050 67 67     100%     29.75   0    
Feb 24 14:16 S 16 10 Mostly Cloudy SCT020 SCT039 BKN050 67 67     100%     29.75   0    
Feb 24 14:05 S 17 10 Mostly Cloudy FEW005 BKN020 BKN049 67 67     100%     29.76        
Feb 24 13:53 S 18 10 Cloudy OVC018 67 67     100%     29.76 29.76 0    
Feb 24 13:36 S 16 10 Cloudy FEW005 OVC016 66 66     100%     29.77   0    
Feb 24 13:27 S 17 10 Light Rain SCT005 BKN014 OVC023 66 66     100%     29.78   0    
Feb 24 13:01 S 18 3 Rain and Fog/Mist BKN006 OVC012 66 66     100%     29.8   0    
Feb 24 12:53 S 14 2 Rain and Fog/Mist SCT006 BKN012 OVC027 66 66     100%     29.81 29.8 0    
Feb 24 12:44 SSE 13 1.75 Heavy Rain and Fog/Mist BKN010 BKN022 66 66     100%     29.81   0    
Feb 24 12:27 S 9 5 Light Rain and Fog/Mist BKN010 BKN070 OVC100 67 67     100%     29.82   0    
Feb 24 12:08 SSW 8 8 Thunderstorms and Rain OVC009 66 66     100%     29.85   0    
Feb 24 11:53 SSW 11 10 Light Rain OVC007 66 66     100%     29.86 29.85 0   0
Feb 24 10:53 S 9 7 Light Rain BKN006 BKN010 OVC016 65 65     100%     29.9 29.89 0    
Feb 24 10:36 SW 7 10 Light Rain FEW005 BKN009 OVC016 65 65     100%     29.9   0    
Feb 24 10:29 SSW 5 2.5 Light Rain and Fog/Mist SCT005 OVC009 65 65     100%     29.91   0    
Feb 24 10:22 SSW 5 0.75 Heavy Rain and Fog/Mist BKN007 OVC011 64 64     100%     29.91   0    
Feb 24 10:19 3 0.5 Heavy Rain and Fog OVC007 63 63     100%     29.92   0    
Feb 24 10:12 SSE 3 1.5 Light Rain and Fog/Mist OVC007 63 63     100%     29.92   0    
Feb 24 10:09 Calm 4 Light Rain and Fog/Mist OVC007 63 63     100%     29.93   0    
Feb 24 09:53 SSE 5 7 Cloudy OVC006 64 64     100%     29.94 29.93      
Feb 24 08:53 SSW 9 8 Cloudy BKN007 OVC012 64 64     100%     29.96 29.96 0 0  
Feb 24 08:03 SSW 13 8 Light Rain OVC005 63 63     100%     29.97   0    
Feb 24 07:53 SSW 14 6 Light Rain and Fog/Mist OVC004 63 63     100%     29.97 29.97 0    
Feb 24 07:19 SSW 8 3 Fog/Mist OVC003 59 59     100%     29.98   0    
Feb 24 06:53 SSE 5 1 Light Rain and Fog/Mist VV003 57 57     100%     29.97 29.97 0    
Feb 24 06:30 SSE 5 1.5 Fog/Mist OVC002 57 57     100%     29.98        
Feb 24 06:23 SSE 5 2 Fog/Mist OVC002 57 57     100%     29.98        
Feb 24 06:15 SE 3 3 Fog/Mist OVC002 57 57     100%     29.98        
Feb 24 06:04 SSE 6 2.5 Fog/Mist OVC003 57 57     100%     29.97        
Feb 24 05:53 S 6 1.5 Fog/Mist OVC003 57 57     100%     29.97 29.97 0   0
Feb 24 05:07 SE 3 1.25 Fog/Mist OVC002 55 55     100%     29.97   0    
Feb 24 04:53 Calm 2 Light Rain and Fog/Mist OVC002 55 55     100%     29.98 29.97 0    
Feb 24 03:53 E 5 6 Fog/Mist OVC004 54 54     100%     29.99 29.99 0    
Feb 24 03:46 Calm 5 Light Rain and Fog/Mist OVC004 54 54     100%     29.99   0    
Feb 24 02:53 ENE 5 7 Cloudy OVC007 53 53     100%     30.01 30      
Feb 24 02:38 ENE 6 7 Cloudy BKN009 OVC013 53 53     100%     30.01        
Feb 24 02:11 ENE 6 10 Cloudy FEW005 OVC014 53 53     100%     30.03        
Feb 24 01:53 ENE 5 10 Cloudy FEW005 BKN016 OVC022 53 53     100%     30.04 30.04      
Feb 24 00:53 ENE 7 10 Cloudy FEW005 OVC022 53 53     100%     30.08 30.07      
Feb 24 00:44 ENE 7 10 Cloudy SCT004 OVC022 53 53     100%     30.08        
Feb 24 00:30 E 6 10 Cloudy BKN004 OVC024 53 53     100%     30.1        
Feb 23 23:53 E 8 10 Cloudy SCT005 OVC026 53 53     100%     30.11 30.11 0   0
Feb 23 23:27 ENE 9 10 Cloudy BKN006 OVC027 52 52     100%     30.12   0    
Feb 23 23:17 NE 7 10 Cloudy SCT006 OVC029 52 52     100%     30.13   0    
Feb 23 23:05 E 7 10 Cloudy BKN006 OVC031 52 52     100%     30.14   0    
Feb 23 22:53 ENE 8 10 Cloudy SCT006 OVC031 52 52     100%     30.14 30.14      
Feb 23 22:45 ENE 7 10 Cloudy SCT007 OVC031 52 52     100%     30.15        
Feb 23 21:53 E 8 10 Mostly Cloudy BKN037 52 52     100%     30.15 30.15      
Feb 23 20:53 NE 5 10 Cloudy OVC035 53 53     100%     30.16 30.16 0 0  
Feb 23 19:53 W 6 10 Cloudy OVC040 53 52     96%     30.2 30.2 0    
Feb 23 18:53 NE 8 10 Cloudy BKN047 OVC055 53 52     96%     30.2 30.2 0    
Feb 23 17:53 Calm 10 Light Rain BKN060 OVC070 53 53     100%     30.22 30.22 0   0
Feb 23 16:53 NE 7 10 Light Rain BKN075 OVC090 54 52     93%     30.21 30.21 0    
Feb 23 16:43 NNE 3 10 Light Rain SCT017 OVC075 54 52     93%     30.22   0    
Feb 23 16:19 Calm 10 Cloudy BKN017 OVC075 54 52     93%     30.24        
Feb 23 15:53 Calm 10 Cloudy OVC075 54 53     97%     30.23 30.23      
Feb 23 15:23 NNE 8 10 Cloudy FEW015 OVC080 53 52     96%     30.22        
Feb 23 15:02 NE 7 10 Cloudy SCT007 OVC015 53 52     96%     30.22        
Feb 23 14:53 NNE 7 10 Cloudy BKN007 OVC015 53 51     93%     30.24 30.23 0 0  
Feb 23 14:03 NNW 7 10 Cloudy OVC008 54 52     93%     30.25        
Feb 23 13:53 NNE 5 10 Cloudy BKN010 OVC015 54 52     93%     30.24 30.24      
Feb 23 13:18 NW 6 10 Cloudy BKN010 OVC017 54 53     97%     30.26        
Feb 23 12:53 NNW 5 10 Cloudy BKN017 OVC095 55 52     89%     30.27 30.27 0    
Feb 23 11:53 E 6 10 Cloudy SCT016 OVC095 55 52     89%     30.28 30.28     0
Feb 23 11:42 Calm 10 Cloudy BKN015 OVC095 55 52     89%     30.29        
Feb 23 11:04 NNE 6 10 Cloudy SCT015 OVC100 54 52     93%     30.28        
Feb 23 10:53 NE 7 10 Cloudy BKN015 OVC100 53 52     96%     30.29 30.28 0    
Feb 23 09:53 Calm 10 Light Rain OVC016 53 53     100%     30.29 30.29 0    
Feb 23 09:22 Calm 10 Cloudy FEW005 BKN015 OVC095 53 53     100%     30.29   0    
Feb 23 09:11 NNW 5 10 Cloudy FEW005 BKN014 OVC100 53 53     100%     30.29   0    
Feb 23 09:02 NNW 5 10 Light Rain FEW005 BKN090 OVC110 53 53     100%     30.3   0    
Feb 23 08:53 Calm 10 Light Rain FEW014 BKN090 OVC110 53 53     100%     30.3 30.3 0 0  
Feb 23 08:32 Calm 10 Light Rain FEW012 SCT025 OVC095 53 53     100%     30.3   0    
Feb 23 07:53 W 7 5 Rain and Fog/Mist SCT008 BKN024 OVC095 53 53     100%     30.3 30.3 0    
Feb 23 07:36 WNW 5 4 Rain and Fog/Mist SCT006 BKN011 OVC023 53 53     100%     30.29   0    
Feb 23 07:14 W 6 4 Rain and Fog/Mist BKN024 BKN036 OVC075 53 53     100%     30.29   0    
Feb 23 07:07 W 6 5 Rain and Fog/Mist FEW006 BKN038 OVC080 53 53     100%     30.28   0    
Feb 23 06:53 WSW 5 6 Rain and Fog/Mist SCT006 BKN023 OVC030 53 53     100%     30.27 30.27 0    
Feb 23 06:31 W 6 5 Rain and Fog/Mist SCT005 BKN010 OVC015 53 53     100%     30.26   0    
Feb 23 05:53 W 8 10 Light Rain BKN005 BKN080 OVC100 53 53     100%     30.23 30.23 0   1
Feb 23 05:11 WSW 8 6 Rain and Fog/Mist BKN005 BKN021 OVC032 54 54     100%     30.21   0    
Feb 23 04:58 W 7 3 Thunderstorms and Rain and Fog/Mist FEW005 BKN024 OVC033 54 54     100%     30.21   0    
Feb 23 04:53 W 8 1.75 Thunderstorms and Heavy Rain and Fog/Mist FEW005 BKN020 OVC035 54 54     100%     30.21 30.21 1    
Feb 23 04:40 WSW 9 1.75 Thunderstorms and Heavy Rain and Fog/Mist FEW006 BKN025 OVC047 53 53     100%     30.21   0    
Feb 23 04:28 SW 3 1.75 Thunderstorms and Heavy Rain and Fog/Mist FEW005 BKN040 OVC060 53 53     100%     30.19   0    
Feb 23 04:22 SW 6 4 Thunderstorms and Rain and Fog/Mist FEW005 BKN047 OVC055 53 53     100%     30.19   0    
Feb 23 04:12 SW 6 10 Light Rain FEW008 BKN047 OVC060 53 53     100%     30.19   0    
Feb 23 04:01 W 5 10 Light Rain SCT012 BKN047 OVC075 53 53     100%     30.19   0    
Feb 23 03:53 WSW 7 5 Light Rain and Fog/Mist FEW010 BKN015 OVC046 53 53     100%     30.19 30.19 0    
Feb 23 03:32 W 9 8 Light Rain SCT003 SCT010 OVC014 51 51     100%     30.21   0    
Feb 23 02:53 WNW 6 10 Cloudy OVC004 50 50     100% 48   30.2 30.19   0  
Feb 23 02:51 WNW 8 10 Cloudy OVC004 52 52     100%     30.19        
Feb 23 02:38 WNW 10 10 Cloudy BKN006 OVC010 53 53     100%     30.2        
Feb 23 02:27 WNW 6 10 Cloudy BKN004 BKN008 OVC018 52 52     100%     30.19        
Feb 23 02:23 WNW 7 10 Cloudy SCT004 BKN011 OVC018 52 52     100%     30.19        
Feb 23 02:13 Calm 10 Cloudy BKN004 OVC017 51 51     100%     30.18        
Feb 23 01:53 Calm 10 Cloudy BKN005 BKN013 OVC110 51 51     100%     30.18 30.18 0    
Feb 23 01:48 S 5 10 Light Rain BKN007 BKN035 OVC110 52 52     100%     30.18   0    
Feb 23 01:36 Calm 10 Light Rain SCT004 BKN013 OVC070 51 51     100%     30.19   0    
Feb 23 00:53 ESE 5 10 Light Rain OVC003 50 50     100% 48   30.19 30.19 0    
Feb 23 00:38 SE 6 10 Light Rain BKN005 BKN041 OVC090 50 50     100% 48   30.2   0    
Feb 23 00:30 E 7 10 Light Rain SCT007 BKN080 OVC100 50 50     100% 47   30.19   0    
Feb 23 00:21 ESE 7 10 Light Rain BKN009 BKN080 OVC100 50 50     100% 47   30.2   0    
Feb 23 00:07 ESE 8 7 Thunderstorms and Rain FEW009 BKN095 OVC110 51 51     100%     30.21   0    
Feb 23 00:05 ESE 7 7 Rain BKN090 OVC110 51 51     100%     30.22   0    
Feb 22 23:53 E 9 8 Rain BKN090 OVC110 51 51     100%     30.21 30.21 0   3
Feb 22 23:22 SE 7 3 Heavy Rain and Fog/Mist FEW007 BKN036 OVC080 51 51     100%     30.24   0    
Feb 22 22:53 5 5 Light Rain and Fog/Mist FEW007 BKN023 OVC031 49 49     100% 47   30.23 30.23 1    
Feb 22 22:48 Calm 3 Rain and Fog/Mist FEW007 BKN018 OVC031 48 48     100%     30.22   1    
Feb 22 22:42 NNE 6 1.75 Heavy Rain and Fog/Mist FEW008 BKN021 OVC027 49 49     100% 46   30.23   1    
Feb 22 22:32 ENE 7 1 Thunderstorms and Heavy Rain and Fog/Mist FEW012 BKN021 OVC100 49 49     100% 46   30.24   1    
Feb 22 22:23 6 2.5 Thunderstorms and Heavy Rain and Fog/Mist FEW014 BKN033 OVC100 48 48     100% 45   30.23   0    
Feb 22 22:14 E 9 6 Light Rain and Fog/Mist FEW008 BKN047 OVC100 48 48     100% 44   30.23   0    
Feb 22 22:04 E 9 5 Rain and Fog/Mist FEW004 BKN027 OVC080 48 48     100% 44   30.22   0    
Feb 22 21:53 E 9 5 Rain and Fog/Mist FEW005 BKN019 OVC031 49 49     100% 45   30.24 30.24 1    
Feb 22 21:26 W 7 7 Light Rain FEW004 BKN031 OVC044 48 48     100% 45   30.28   0    
Feb 22 21:19 ENE 16 3 Rain and Fog/Mist FEW012 BKN021 OVC049 48 48     100% 42   30.23   0    
Feb 22 21:10 5 2 Heavy Rain and Fog/Mist FEW012 BKN019 OVC036 47 47     100% 45   30.28   0    
Feb 22 21:06 ENE 10 1.5 Thunderstorms and Heavy Rain and Fog/Mist SCT012 BKN019 OVC033 47 47     100% 42   30.27   0    
Feb 22 20:59 ENE 15 1.75 Thunderstorms and Heavy Rain and Fog/Mist FEW005 BKN012 OVC021 47 47     100% 41   30.25   0    
Feb 22 20:53 5 3 Thunderstorms and Heavy Rain and Fog/Mist FEW005 BKN012 OVC047 47 47     100% 45   30.27 30.27 0 1  
Feb 22 20:38 NE 8 5 Rain and Fog/Mist SCT004 BKN014 OVC036 47 47     100% 43   30.26   0    
Feb 22 20:31 NE 9 4 Light Rain and Fog/Mist BKN004 BKN012 OVC045 46 46     100% 41   30.26   0    
Feb 22 20:21 ENE 10 3 Light Rain and Fog/Mist SCT005 BKN014 OVC047 46 46     100% 41   30.27   0    
Feb 22 19:53 E 11 2.5 Heavy Rain and Fog/Mist SCT006 BKN023 OVC029 46 46     100% 41   30.27 30.27 0    
Feb 22 19:50 ENE 10 3 Heavy Rain and Fog/Mist SCT006 BKN023 OVC050 46 46     100% 41   30.26   0    
Feb 22 19:34 NE 9 2.5 Heavy Rain and Fog/Mist SCT008 BKN024 OVC055 46 46     100% 41   30.27   0    
Feb 22 19:13 NNE 11 7 Light Rain FEW005 BKN070 OVC090 46 46     100% 41   30.22   0    
Feb 22 18:53 ENE 14 10 Light Rain FEW060 OVC100 46 46     100% 40   30.25 30.24 0    
Feb 22 18:35 ENE 11 7 Rain SCT008 BKN100 OVC110 47 46     97% 42   30.25   0    
Feb 22 17:53 NNE 3 10 Light Rain OVC008 47 46     97% 46   30.3 30.3 0   0
Feb 22 17:32 E 6 8 Rain OVC009 47 46     97% 44   30.3   0    
Feb 22 17:06 Calm 10 Cloudy BKN010 OVC022 48 46     93%     30.31        
Feb 22 16:53 NNE 5 10 Cloudy BKN009 OVC022 48 46     93% 46   30.29 30.29      
Feb 22 16:35 ENE 5 10 Cloudy BKN009 OVC024 48 45     89% 46   30.3        
Feb 22 16:14 NNE 5 10 Cloudy SCT009 OVC025 48 46     93% 46   30.31        
Feb 22 15:53 NNE 3 10 Cloudy OVC009 48 45     89% 47   30.32 30.32      
Feb 22 14:53 NE 3 10 Cloudy OVC006 47 45     93% 46   30.31 30.3      
Feb 22 13:53 ENE 6 10 Cloudy OVC006 46 45     96% 43   30.32 30.32      
Feb 22 12:53 E 6 10 Cloudy OVC006 45 44     97% 42   30.35 30.35      
Feb 22 11:53 E 7 10 Cloudy OVC005 44 44     100% 40   30.36 30.36      
Feb 22 11:37 E 9 10 Cloudy OVC004 44 43     96% 39   30.36        
Feb 22 10:53 E 8 10 Cloudy OVC005 44 42     93% 40   30.38 30.39      
Feb 22 09:53 NNE 5 10 Cloudy OVC005 43 42     97% 40   30.39 30.39      
Feb 22 09:25 N 5 10 Cloudy OVC005 42 42     100% 39   30.39        
Feb 22 08:53 N 6 10 Cloudy OVC004 41 41     100% 37   30.38 30.38      
Feb 22 08:27 N 6 5 Fog/Mist OVC004 41 41     100% 37   30.38        
Feb 22 07:53 N 3 6 Fog/Mist OVC005 40 40     100% 38   30.37 30.37      
Feb 22 06:53 N 6 10 Cloudy OVC006 40 40     100% 36   30.34 30.34      
Feb 22 05:53 N 6 4 Fog/Mist OVC005 39 39     100% 35   30.32 30.32     0
Feb 22 05:40 N 6 3 Fog/Mist BKN005 OVC010 39 39     100% 35   30.31        
Feb 22 05:24 N 6 2.5 Fog/Mist BKN006 OVC010 39 39     100% 35   30.31        
Feb 22 04:53 N 9 3 Fog/Mist OVC006 39 39     100% 33   30.31 30.31      
Feb 22 03:53 NNW 10 10 Cloudy OVC007 39 38     96% 32   30.29 30.29      
Jun 10 21:53 S 6 10 Clear CLR 75 62     64%   75 29.97 29.96      
Jun 10 11:53 SW 10 10 Partly Cloudy SCT050 83 59     44%   83 30.01 30.01      
Jun 09 23:53 Calm 10 Clear CLR 62 58     86%     29.95 29.94      
Jun 08 22:53 Calm 10 Clear CLR 63 56     78%     29.93 29.92      
Jun 08 06:53 NNE 6 10 Clear CLR 64 55     73%     30.01 30      
Jun 06 11:53 E 7 10 Mostly Clear FEW003 82 68     63%   85 29.84 29.83      
Jun 06 01:53 Calm 4 Fog/Mist CLR 69 67     93%     29.8 29.79